Flag for Japan Weather past 2 weeks in Minamisōma, Japan

Now
68 °F

Fog.


Feels Like: 68 °F
Forecast: 64 / 71 °F
Wind: 2 mph from Southeast

Location: Sendai

Current Time: Jul 5, 2015 at 4:18:39 AM

Latest Report: Jul 5, 2015 at 3:00 AM


Visibility: 4 mi

Pressure: 29.87 "Hg

Humidity: 93%

Dew point: 66 °F

Location of MinamisōmaLocation

Historic Weather in Minamisōma — Graph

°F

Minamisōma temperature yesterday

Maximum temperature yesterday: 72 °F (at 3:00 PM)
Minimum temperature yesterday: 68 °F (at 11:00 PM)
Average temperature yesterday: 69 °F

Past Weeks' High & Low Weather Summary

 TemperatureHumidityPressure
High81 °F (Jul 2, 2:00 PM)97% (Jun 27, 12:00 AM)29.93 "Hg (Jun 27, 12:00 AM)
Low55 °F (Jun 28, 11:00 PM)48% (Jul 2, 2:00 PM)29.26 "Hg (Jul 1, 4:00 PM)
Average69 °F81%29.72 "Hg
* Reported Jun 20 3:00 AM — Jul 5 3:00 AM, Minamisōma, Weather by CustomWeather, © 2015

Note: Actual official high and low records may vary slightly from our data, if they occured in-between our weather recording intervals... More about our weather records

Advertising

Minamisōma weather history for previous 24 hours

 ConditionsComfort  
Time TempWeatherWind HumidityBarometerVisibility
3:00 AM
Sun, Jul 5
68 °FFog.2 mph93%29.87 "Hg4 mi
2:00 AM68 °FMild.5 mph91%29.86 "HgN/A
1:00 AM68 °FMild.6 mph92%29.87 "HgN/A
12:00 AM68 °FMild.3 mph93%29.88 "HgN/A
11:00 PM
Sat, Jul 4
68 °FMild.1 mph94%29.88 "HgN/A
10:00 PM68 °FMild.5 mph94%29.88 "HgN/A
9:00 PM68 °FFog.3 mph93%29.86 "Hg4 mi
8:00 PM69 °FMild.6 mph90%29.84 "HgN/A
7:00 PM69 °FMild.6 mph89%29.83 "HgN/A
6:00 PM71 °FFog.3 mph82%29.81 "Hg6 mi
5:00 PM71 °FMild.6 mph81%29.80 "HgN/A
4:00 PM72 °FMild.5 mph79%29.79 "HgN/A
3:00 PM72 °FFog.8 mph79%29.78 "Hg4 mi
2:00 PM71 °FMild.5 mph82%29.78 "HgN/A
1:00 PM69 °FMild.6 mph90%29.80 "HgN/A
12:00 PM70 °FDrizzle. Low clouds.5 mph90%29.79 "Hg2 mi
11:00 AM69 °FMild.3 mph89%29.80 "HgN/A
10:00 AM68 °FMild.7 mph92%29.79 "HgN/A
9:00 AM69 °FLow clouds.5 mph91%29.78 "Hg4 mi
8:00 AM68 °FMild.7 mph86%29.77 "HgN/A
7:00 AM69 °FMild.6 mph86%29.76 "HgN/A
6:00 AM69 °FOvercast.3 mph89%29.75 "Hg4 mi
5:00 AM69 °FMild.1 mph90%29.73 "HgN/A
4:00 AM69 °FMild.2 mph91%29.71 "HgN/A
Weather by CustomWeather, © 2015

See weather overviewHow to use our weather pages